Prague, Czech Republic

2:22 AM CEST on August 20, 2017 (GMT +0200)
Ruzyne

Weather History for LKPR - September, 2013

Change the Weather History Date:

Sunday, September 1, 2013

  Actual Average Record
Temperature  
Mean Temperature 56 °F -  
Max Temperature 63 °F 66 °F 91 °F (2015)
Min Temperature 50 °F 47 °F 42 °F (1998)
Degree Days  
Heating Degree Days 8    
Growing Degree Days 6 (Base 50)    
Moisture  
Dew Point 46 °F    
Average Humidity 69    
Maximum Humidity 100    
Minimum Humidity 39    
Precipitation  
Precipitation 0.00 in 0.05 in - ()
Sea Level Pressure  
Sea Level Pressure 30.20 in    
Wind  
Wind Speed 8 mph ()    
Max Wind Speed 16 mph    
Max Gust Speed -    
Visibility 6.1 miles    
Events Rain    
Averages and records for this station are not official NWS values.
T = Trace of Precipitation, MM = Missing Value Source: Averaged Metar Reports

Daily Weather History Graph

Daily Weather History Graph

Search for Another Location

Airport or City:

Trip Planner

Search our weather history database for the weather conditions in past years. The results will help you decide how hot, cold, wet, or windy it might be!

Date:

Astronomy

Sep. 01, 2013 Rise Set
Actual Time 6:17 AM CEST 7:46 PM CEST
Civil Twilight 5:43 AM CEST 8:20 PM CEST
Nautical Twilight 5:02 AM CEST 9:01 PM CEST
Astronomical Twilight 4:17 AM CEST 9:46 PM CEST
Moon 2:08 AM CEST (9/1) 5:26 PM CEST (9/1)
Length of Visible Light 14h 36m
Length of Day
13h 29m
Waning Crescent, 15% of the Moon is Illuminated
Sep 1
Waning Crescent
Sep 5
New
Sep 12
First Quarter
Sep 19
Full
Sep 27
Last Quarter

Hourly Weather History & Observations

Time (CEST) Temp. Dew Point Humidity Pressure Visibility Wind Dir Wind Speed Gust Speed Precip Events Conditions
12:00 AM 60.8 °F 53.6 °F 77% 30.12 in 6.2 mi West 5.8 mph - N/A Rain Light Rain
12:30 AM 60.8 °F 55.4 °F 82% 30.12 in 6.2 mi WNW 10.4 mph - N/A Rain Light Rain
1:00 AM 59.0 °F 55.4 °F 88% 30.12 in 6.2 mi WNW 4.6 mph - N/A Rain Light Rain
1:30 AM 59.0 °F 55.4 °F 88% 30.12 in 6.2 mi WSW 6.9 mph - N/A Rain Light Rain
2:00 AM 59.0 °F 55.4 °F 88% 30.12 in 6.2 mi West 5.8 mph - N/A   Mostly Cloudy
2:30 AM 59.0 °F 57.2 °F 94% 30.12 in 6.2 mi WNW 4.6 mph - N/A   Mostly Cloudy
3:00 AM 59.0 °F 55.4 °F 88% 30.12 in 3.1 mi NNW 10.4 mph - N/A Rain Rain
3:30 AM 57.2 °F 55.4 °F 94% 30.12 in 6.2 mi NNW 12.7 mph - N/A Rain Rain
4:00 AM 55.4 °F 55.4 °F 100% 30.12 in 5.0 mi NW 9.2 mph - N/A Rain Light Rain
4:30 AM 55.4 °F 55.4 °F 100% 30.15 in 6.2 mi NW 8.1 mph - N/A Rain Light Rain
5:00 AM 55.4 °F 53.6 °F 94% 30.15 in 6.2 mi NW 9.2 mph - N/A Rain Light Rain
5:16 AM 55.4 °F 53.6 °F 94% 30.15 in 6.2 mi NNW 9.2 mph - N/A   Mostly Cloudy
5:30 AM 55.4 °F 53.6 °F 94% 30.15 in 6.2 mi NW 10.4 mph - N/A   Mostly Cloudy
6:00 AM 55.4 °F 53.6 °F 94% 30.15 in 6.2 mi NNW 13.8 mph - N/A Rain Light Rain
6:30 AM 53.6 °F 50.0 °F 88% 30.18 in 6.2 mi North 11.5 mph - N/A   Mostly Cloudy
7:00 AM 53.6 °F 48.2 °F 82% 30.18 in 6.2 mi NNW 10.4 mph - N/A   Mostly Cloudy
7:30 AM 51.8 °F 46.4 °F 82% 30.18 in 6.2 mi NNW 9.2 mph - N/A   Partly Cloudy
8:00 AM 51.8 °F 46.4 °F 82% 30.21 in 6.2 mi NW 6.9 mph - N/A   Partly Cloudy
8:30 AM 53.6 °F 48.2 °F 82% 30.21 in 6.2 mi NW 8.1 mph - N/A   Partly Cloudy
9:00 AM 53.6 °F 48.2 °F 82% 30.21 in 6.2 mi NW 9.2 mph - N/A   Partly Cloudy
9:30 AM 53.6 °F 44.6 °F 72% 30.24 in 6.2 mi NW 10.4 mph - N/A   Partly Cloudy
10:00 AM 55.4 °F 44.6 °F 67% 30.24 in 6.2 mi NNW 9.2 mph - N/A   Partly Cloudy
10:30 AM 55.4 °F 44.6 °F 67% 30.24 in 6.2 mi WNW 11.5 mph - N/A   Scattered Clouds
11:00 AM 57.2 °F 44.6 °F 63% 30.24 in 6.2 mi NNW 10.4 mph - N/A   Mostly Cloudy
11:30 AM 57.2 °F 42.8 °F 59% 30.24 in 6.2 mi NW 10.4 mph - N/A   Mostly Cloudy
12:00 PM 57.2 °F 44.6 °F 63% 30.24 in 6.2 mi NW 12.7 mph - N/A   Mostly Cloudy
12:30 PM 57.2 °F 42.8 °F 59% 30.24 in 6.2 mi NW 11.5 mph - N/A   Scattered Clouds
1:00 PM 59.0 °F 42.8 °F 55% 30.24 in 6.2 mi WNW 10.4 mph - N/A   Partly Cloudy
1:30 PM 60.8 °F 42.8 °F 52% 30.21 in 6.2 mi WNW 13.8 mph - N/A   Scattered Clouds
2:00 PM 59 °F 41 °F 39% 30.23 in 31 mi NW 11.2 mph - -   Mostly Cloudy
2:00 PM 59.0 °F 41.0 °F 51% 30.24 in - NW 12.7 mph - N/A   Clear
2:30 PM 62.6 °F 41.0 °F 45% 30.21 in - NW 13.8 mph - N/A   Clear
3:00 PM 62.6 °F 41.0 °F 45% 30.24 in 6.2 mi NNW 13.8 mph - N/A   Partly Cloudy
3:30 PM 60.8 °F 41.0 °F 48% 30.21 in - NW 16.1 mph - N/A   Clear
4:00 PM 59.0 °F 39.2 °F 48% 30.21 in - NW 13.8 mph - N/A   Clear
4:05 PM 62.6 °F 41.0 °F 45% 30.21 in - NW 12.7 mph - N/A   Clear
4:30 PM 62.6 °F 39.2 °F 42% 30.21 in - NW 11.5 mph - N/A   Clear
5:00 PM 60.8 °F 41.0 °F 48% 30.21 in - NW 9.2 mph - N/A   Clear
5:30 PM 62.6 °F 41.0 °F 45% 30.21 in - WNW 10.4 mph - N/A   Clear
6:00 PM 60.8 °F 39.2 °F 45% 30.21 in - NW 11.5 mph - N/A   Clear
6:30 PM 59.0 °F 41.0 °F 51% 30.21 in - NNW 8.1 mph - N/A   Clear
7:00 PM 59.0 °F 41.0 °F 51% 30.21 in - NW 12.7 mph - N/A   Clear
7:30 PM 57.2 °F 41.0 °F 55% 30.21 in - NW 8.1 mph - N/A   Clear
8:00 PM 55 °F 43 °F 53% 30.23 in 31 mi NW 4.5 mph - -   Partly Cloudy
8:00 PM 55.4 °F 42.8 °F 63% 30.21 in - NW 4.6 mph - N/A   Clear
8:30 PM 53.6 °F 42.8 °F 67% 30.21 in - WNW 5.8 mph - N/A   Clear
9:00 PM 55.4 °F 42.8 °F 63% 30.24 in - West 5.8 mph - N/A   Clear
9:30 PM 51.8 °F 42.8 °F 71% 30.24 in - West 6.9 mph - N/A   Clear
10:00 PM 50.0 °F 42.8 °F 76% 30.24 in - WSW 6.9 mph - N/A   Clear
10:30 PM 51.8 °F 42.8 °F 71% 30.24 in - WSW 8.1 mph - N/A   Clear
11:00 PM 50.0 °F 42.8 °F 76% 30.24 in - WSW 6.9 mph - N/A   Clear
11:30 PM 50.0 °F 42.8 °F 76% 30.24 in - WSW 6.9 mph - N/A   Clear